TITAN 3C TRANSTAGE DEB, 1671

Orbit data source: Space-Track

TITAN 3C TRANSTAGE DEB, 1671 is space debris in LEO originally from a launch on Fri, 15 Oct 1965 UTC launched from the Air Force Eastern Test Range (AFETR). Debris objects in space refer to the collection of defunct objects orbiting the Earth. Examples of debris include non-operational satellites, rocket bodies, and fragments generated from explosions, collisions, or faulty payload assembly.

Loading next visibility...
Identifier
1671, 1965-082AJ
Orbit
LEO
Country
Flag of USUS
Related business
Manufacturer
Unknown
Mission
Spacecraft
Bus & Motor
Unknown
Mass
Unknown
Launch date (UTC)
1965-10-15 (60 years ago)
Launch vehicle
Unknown
Launch site
Air Force Eastern Test Range (AFETR)
Object type
Payload
Rocket body
Debris
Shape & HBR
Unknown
Radar Cross Section
Medium (>0.1 m² and <1 m²)

Expand to show TLE details & history
Last TLE update: 16 hours ago

TLE from 16 hours ago
0 TITAN 3C TRANSTAGE DEB
1 01671U 65082AJ  25259.19604759  .00000530  00000-0  11400-3 0  9997
2 01671  32.1605 211.5500 0052525 313.3659  46.2616 14.53689444146494
Epoch: 2025-09-16T04:42Z
TLE epoch observation values (Epoch: 2025-09-16T04:42:18.511Z)
Latitude
-0.00003°
Longitude
145.583°
Altitude
686.638 km
Speed
7.529 km/s
True Right ascension
14h 06m 11s
True Declination
0° 00' 00"
Sunlit
Object was in daylight at epoch
Visualization orbit readout
Latitude
Unknown
Longitude
Unknown
Altitude
Unknown
Speed
Unknown
Apparent Right ascension
Unknown
Apparent Declination
Unknown
Sunlit
N/A
Visualization observer readout
Local Sidereal Time
13:21:25
Azimuth
Unknown
Elevation
Unknown
Doppler factor
Unknown
Orbital elements
Apogee altitude
754.469 km
Perigee altitude
679.932 km
Semi-major axis
7,095.338 km
Eccentricity
0.00525
Inclination
32.1605°
RAAN
211.55°
Arg. of periapsis
313.3659°
True anomaly
46.69845°
Mean anomaly
46.2616°
Eccentric anomaly
46.47983°
Mean motion
3.63148 °/min
Orbital period
99.13 mins
BSTAR
0.000114
Loading maneuver chart data...
Computing Atmospheric mass density...

Documentation

Showing up to 5 results
|